Liberia, Costa Rica

2:50 AM CST on April 30, 2017 (GMT -0600)
Daniel Oduber Quiros International

Weather History for MRLB - November, 2013

Change the Weather History Date:

Saturday, November 16, 2013

  Actual Average Record
Temperature  
Mean Temperature 80 °F -  
Max Temperature 88 °F 86 °F 92 °F (2012)
Min Temperature 72 °F 72 °F 62 °F (2012)
Cooling Degree Days 15    
Growing Degree Days 30 (Base 50)    
Moisture  
Dew Point 71 °F    
Average Humidity 66    
Maximum Humidity 89    
Minimum Humidity 46    
Precipitation  
Precipitation 0.00 in - - ()
Sea Level Pressure  
Sea Level Pressure 29.79 in    
Wind  
Wind Speed 8 mph ()    
Max Wind Speed 18 mph    
Max Gust Speed -    
Visibility 7.7 miles    
Events      
Averages and records for this station are not official NWS values.
T = Trace of Precipitation, MM = Missing Value Source: Averaged Metar Reports

Daily Weather History Graph

Daily Weather History Graph

Search for Another Location

Airport or City:

Trip Planner

Search our weather history database for the weather conditions in past years. The results will help you decide how hot, cold, wet, or windy it might be!

Date:

Astronomy

Nov. 16, 2013 Rise Set
Actual Time 5:38 AM CST 5:15 PM CST
Civil Twilight 5:15 AM CST 5:38 PM CST
Nautical Twilight 4:50 AM CST 6:03 PM CST
Astronomical Twilight 4:24 AM CST 6:29 PM CST
Moon 4:44 PM CST (11/16) 4:43 AM CST (11/16)
Length of Visible Light 12h 22m
Length of Day
11h 37m
Waxing Gibbous, 99% of the Moon is Illuminated
Nov 16
Waxing Gibbous
Nov 17
Full
Nov 25
Last Quarter
Dec 2
New
Dec 9
First Quarter

Hourly Weather History & Observations

Time (CST) Temp. Heat Index Dew Point Humidity Pressure Visibility Wind Dir Wind Speed Gust Speed Precip Events Conditions
6:00 AM 73 °F - 71 °F 89% 29.81 in 12 mi WSW 3.5 mph - -   Overcast
6:00 AM 73.4 °F - 69.8 °F 88% 29.79 in 6.2 mi WSW 3.5 mph - N/A   Mostly Cloudy
7:00 AM 75.2 °F - 71.6 °F 89% 29.83 in 6.2 mi SSW 3.5 mph - N/A   Mostly Cloudy
8:00 AM 78.8 °F - 73.4 °F 83% 29.85 in 6.2 mi NE 4.6 mph - N/A   Mostly Cloudy
9:00 AM 82 °F - 72 °F 64% 29.87 in 12 mi East 8.1 mph - -   Overcast
9:00 AM 82.4 °F 87.2 °F 71.6 °F 70% 29.85 in 6.2 mi East 8.1 mph - N/A   Mostly Cloudy
10:00 AM 84.2 °F 89.6 °F 71.6 °F 66% 29.84 in 6.2 mi ENE 15.0 mph - N/A   Mostly Cloudy
11:00 AM 87.8 °F 92.6 °F 69.8 °F 55% 29.82 in 6.2 mi East 17.3 mph - N/A   Mostly Cloudy
12:00 PM 88 °F - 71 °F 49% 29.81 in 12 mi East 15.0 mph - -   Overcast
12:00 PM 87.8 °F 93.8 °F 71.6 °F 58% 29.79 in 6.2 mi East 15.0 mph - N/A   Mostly Cloudy
1:00 PM 86.0 °F 91.8 °F 71.6 °F 62% 29.77 in 6.2 mi ENE 17.3 mph - N/A   Mostly Cloudy
2:00 PM 86.0 °F 90.4 °F 69.8 °F 58% 29.76 in 6.2 mi East 16.1 mph - N/A   Mostly Cloudy
3:00 PM 88 °F - 70 °F 46% 29.76 in 12 mi ENE 15.0 mph - -   Overcast
3:00 PM 87.8 °F 92.6 °F 69.8 °F 55% 29.74 in 6.2 mi ENE 15.0 mph - N/A   Mostly Cloudy
4:00 PM 87.8 °F 92.6 °F 69.8 °F 55% 29.74 in 6.2 mi ENE 18.4 mph - N/A   Mostly Cloudy
5:00 PM 84.2 °F 88.4 °F 69.8 °F 62% 29.75 in 6.2 mi ENE 13.8 mph - N/A   Mostly Cloudy
6:00 PM 83 °F - 70 °F 57% 29.77 in 12 mi East 6.9 mph - -   Scattered Clouds
6:00 PM 82.4 °F 86.3 °F 69.8 °F 66% 29.76 in 6.2 mi East 6.9 mph - N/A   Mostly Cloudy
7:00 PM 80.6 °F 84.6 °F 71.6 °F 74% 29.78 in 6.2 mi SE 3.5 mph - N/A   Mostly Cloudy
8:00 PM 80.6 °F 83.9 °F 69.8 °F 70% 29.79 in 6.2 mi SE 9.2 mph - N/A   Mostly Cloudy